Weather Roundup
Issued by NWS

Home | Current Version | Previous Version | Text Only | Print | Product List | Glossary On
Versions: 1 2 3 4 5 6 7 8 9 10 11 12 13 14 15 16 17 18 19 20 21 22 23 24 25 26 27 28 29 30 31 32 33 34 35 36 37 38 39 40 41 42 43 44 45 46 47 48 49 50
000
NZUS93 KARX 251210
HRRWXR

CURRENT HOURLY OBSERVATIONS ACROSS
MUCH OF THE UPPER MISSISSIPPI VALLEY
NATIONAL WEATHER SERVICE LA CROSSE WI
700 AM CDT TUE APR 25 2017


...SOUTHEAST MINNESOTA...


CITY           SKY/WX    TMP DP  RH WIND       PRES   REMARKS
ROCHESTER      CLEAR     54  37  52 S14       29.54R
ROCHESTER/MAYO FAIR      57  35  44 SE10      29.53S
WINONA         CLOUDY    55  37  50 SE5       29.55S
AUSTIN         CLEAR     54  37  54 SE6       29.52S
ALBERT LEA     PTCLDY    54  36  50 S7        29.51S
DODGE CENTER   CLEAR     54  37  54 S8        29.52R
PRESTON        CLEAR     53  35  50 S9        29.55S
OWATONNA       PTCLDY    54  37  54 SW8       29.52R
FARIBAULT      CLOUDY    52  46  82 W7        29.51S
$$

...ELSEWHERE IN MINNESOTA...


CITY           SKY/WX    TMP DP  RH WIND       PRES   REMARKS
MINNEAPOLIS    CLOUDY    57  38  48 SE6       29.49S
INTNL FALLS    LGT RAIN  35  32  88 N12       29.66S WCI  27
DULUTH         CLOUDY    42  38  85 E7        29.56F
RED WING       CLOUDY    61  32  33 SE7       29.51S
REDWOOD FALLS  FOG       38  36  92 NW18G24   29.55S VSB 3/4 WCI  28
MANKATO        CLOUDY    41  40  96 NW12      29.54R FOG
WORTHINGTON    FOG       37  37 100 N17       29.55S VSB 3/4 WCI  27
FAIRMONT       CLOUDY    42  40  92 NW17      29.54R FOG
$$

...SOUTHWEST WISCONSIN...


CITY           SKY/WX    TMP DP  RH WIND       PRES   REMARKS
LA CROSSE      CLOUDY    59  36  42 SE8       29.56S
PRAIRIE DU CHI CLEAR     54  34  46 E7        29.59S
BOSCOBEL       CLEAR     53  36  52 CALM      29.60S
LONE ROCK      CLEAR     52  39  61 E8        29.62S
PLATTEVILLE    CLEAR     49  39  67 E7        29.62S
FORT MC COY    CLOUDY    57  35  43 S5        29.60S
CAMP DOUGLAS   MOCLDY    50  37  62 SE9       29.60F
MAUSTON-NEW LI PTSUNNY   52  38  60 SE6       29.61S
VIROQUA        CLOUDY    53  34  49 SE10      29.60R
WIS DELLS      MOCLDY    54  38  56 S8        29.62S
$$

...ELSEWHERE IN WISCONSIN...


CITY           SKY/WX    TMP DP  RH WIND       PRES   REMARKS
MILWAUKEE      CLOUDY    53  44  71 SE12      29.70F
MADISON        MOCLDY    54  40  59 S8        29.65S
GREEN BAY      CLOUDY    51  43  74 SE6       29.70S
EAU CLAIRE     CLOUDY    57  32  38 SE8       29.54S
BLACK RVR FLS  CLOUDY    45  37  74 CALM      29.58S
MEDFORD        CLOUDY    52  35  52 SE9       29.61S
WAUSAU         CLOUDY    50  35  56 E8        29.63S
WIS RAPIDS     PTCLDY    55  38  52 SE7       29.63F
MARSHFIELD     CLOUDY    52  36  54 SE7       29.61S
RICE LAKE      CLOUDY    57  33  39 SE7       29.56S
$$

...NORTHEAST IOWA...


CITY           SKY/WX    TMP DP  RH WIND       PRES   REMARKS
WATERLOO       CLOUDY    54  37  52 SE9       29.54S
DUBUQUE        CLEAR     50  37  61 S7        29.61S
DECORAH        CLEAR     54  36  50 SE8       29.56R
MASON CITY     CLEAR     50  38  63 SE8       29.52F
CHARLES CITY   CLEAR     52  36  54 SE9       29.54R
OELWEIN        CLEAR     52  37  58 SE9       29.56F
$$

...ELSEWHERE IN IOWA...


CITY           SKY/WX    TMP DP  RH WIND       PRES   REMARKS
DES MOINES     CLOUDY    57  41  55 S6        29.54R
IOWA CITY      PTCLDY    52  38  58 CALM      29.60S
FORT DODGE     CLOUDY    52  39  62 CALM      29.52R
MARSHALLTOWN   CLOUDY    53  38  56 SE10      29.53R
CEDAR RAPIDS   CLEAR     53  40  61 S7        29.57S
$$

...NORTHERN ILLINOIS...


CITY           SKY/WX    TMP DP  RH WIND       PRES   REMARKS
CHICAGO-OHARE  CLOUDY    57  49  74 SE10      29.70S
CHICAGO-MIDWAY PTSUNNY   58  50  75 S10       29.72S
MOLINE         CLOUDY    54  39  57 S8        29.61S
ROCKFORD       PTCLDY    54  43  66 SE10      29.69S
PEORIA         PTCLDY    54  42  64 S5        29.68R
$$

NOTE: "FAIR" INDICATES FEW OR NO CLOUDS BELOW 12,000 FEET WITH NO
SIGNIFICANT WEATHER AND/OR OBSTRUCTIONS TO VISIBILITY. WIND
SPEEDS ARE IN MILES-PER-HOUR.




USA.gov is the U.S. government's official web portal to all federal, state and local government web resources and services.